Pope Field Airport, NC

6:19 PM EDT on March 23, 2017 (GMT -0400)
Pope Field Airport

Weather History for KPOB - February, 2014

Change the Weather History Date:

Tuesday, February 18, 2014

  Actual Average Record
Temperature  
Mean Temperature 50 °F -  
Max Temperature 66 °F 52 °F 77 °F (2011)
Min Temperature 33 °F 35 °F 17 °F (1979)
Degree Days  
Heating Degree Days 16    
Moisture  
Dew Point 33 °F    
Average Humidity 66    
Maximum Humidity 90    
Minimum Humidity 23    
Precipitation  
Precipitation 0.00 in - - ()
Sea Level Pressure  
Sea Level Pressure 30.18 in    
Wind  
Wind Speed 3 mph (WSW)    
Max Wind Speed 9 mph    
Max Gust Speed -    
Visibility 10 miles    
Events Rain    
Averages and records for this station are not official NWS values.
T = Trace of Precipitation, MM = Missing Value Source: NWS Daily Summary

Daily Weather History Graph

Daily Weather History Graph

Search for Another Location

Airport or City:

Trip Planner

Search our weather history database for the weather conditions in past years. The results will help you decide how hot, cold, wet, or windy it might be!

Date:

Astronomy

Feb. 18, 2014 Rise Set
Actual Time 6:58 AM EST 6:01 PM EST
Civil Twilight 6:33 AM EST 6:27 PM EST
Nautical Twilight 6:03 AM EST 6:56 PM EST
Astronomical Twilight 5:34 AM EST 7:26 PM EST
Moon 9:42 PM EST (2/18) 8:39 AM EST (2/18)
Length of Visible Light 11h 54m
Length of Day
11h 02m
Waning Gibbous, 87% of the Moon is Illuminated
Feb 18
Waning Gibbous
Feb 22
Last Quarter
Mar 1
New
Mar 8
First Quarter
Mar 16
Full

Hourly Weather History & Observations

Time (EST) Temp. Windchill Dew Point Humidity Pressure Visibility Wind Dir Wind Speed Gust Speed Precip Events Conditions
12:58 AM 41.5 °F 39.6 °F 30.4 °F 65% 30.19 in 10.0 mi Variable 3.5 mph - N/A   Overcast
1:14 AM 41.0 °F 39.0 °F 32.0 °F 70% 30.17 in 10.0 mi South 3.5 mph - N/A Rain Light Rain
1:34 AM 41.0 °F 38.0 °F 32.0 °F 70% 30.17 in 10.0 mi Variable 4.6 mph - N/A   Light Drizzle
1:39 AM 41.0 °F 39.0 °F 32.0 °F 70% 30.17 in 10.0 mi SSE 3.5 mph - N/A   Overcast
1:43 AM 41.0 °F 38.0 °F 32.0 °F 70% 30.17 in 10.0 mi SSE 4.6 mph - N/A Rain Light Rain
1:58 AM 41.2 °F 39.2 °F 32.5 °F 71% 30.19 in 10.0 mi Variable 3.5 mph - 0.00 in Rain Light Rain
2:01 AM 41.0 °F - 32.0 °F 70% 30.18 in 10.0 mi SSW 2.3 mph - N/A   Overcast
2:21 AM 41.0 °F - 32.0 °F 70% 30.19 in 10.0 mi NNW 2.3 mph - N/A   Overcast
2:58 AM 40.8 °F - 33.4 °F 75% 30.17 in 10.0 mi Calm Calm - 0.00 in   Overcast
3:23 AM 39.2 °F 37.0 °F 32.0 °F 75% 30.15 in 10.0 mi SW 3.5 mph - N/A   Mostly Cloudy
3:58 AM 39.7 °F 37.6 °F 32.7 °F 76% 30.14 in 10.0 mi South 3.5 mph - N/A   Clear
4:58 AM 38.3 °F 35.9 °F 32.5 °F 80% 30.14 in 10.0 mi West 3.5 mph - N/A   Clear
5:58 AM 33.4 °F - 30.7 °F 90% 30.19 in 10.0 mi North 2.3 mph - N/A   Clear
6:58 AM 34.3 °F - 30.9 °F 87% 30.20 in 10.0 mi WSW 2.3 mph - N/A   Clear
7:58 AM 34.7 °F - 31.8 °F 89% 30.24 in 10.0 mi Calm Calm - N/A   Partly Cloudy
8:05 AM 35.6 °F - 32.0 °F 87% 30.22 in 10.0 mi Calm Calm - N/A   Partly Cloudy
8:15 AM 37.4 °F - 32.0 °F 81% 30.22 in 10.0 mi SSW 2.3 mph - N/A   Mostly Cloudy
8:35 AM 37.4 °F - 32.0 °F 81% 30.23 in 10.0 mi SW 2.3 mph - N/A   Overcast
8:58 AM 40.8 °F 37.8 °F 35.4 °F 81% 30.25 in 10.0 mi WSW 4.6 mph - N/A   Overcast
9:33 AM 46.4 °F 41.9 °F 39.2 °F 76% 30.24 in 10.0 mi West 9.2 mph - N/A   Scattered Clouds
9:58 AM 48.2 °F - 40.3 °F 74% 30.25 in 10.0 mi West 8.1 mph - N/A   Clear
10:58 AM 55.2 °F - 40.1 °F 57% 30.25 in 10.0 mi Variable 5.8 mph - N/A   Clear
11:58 AM 60.1 °F - 34.0 °F 38% 30.22 in 10.0 mi NW 8.1 mph - N/A   Clear
12:58 PM 63.3 °F - 25.0 °F 23% 30.20 in 10.0 mi North 8.1 mph - N/A   Clear
1:58 PM 65.5 °F - 26.8 °F 23% 30.18 in 10.0 mi Variable 5.8 mph - N/A   Clear
2:58 PM 64.8 °F - 26.6 °F 24% 30.16 in 10.0 mi Variable 2.3 mph - N/A   Clear
3:58 PM 66.9 °F - 27.3 °F 23% 30.16 in 10.0 mi WSW 5.8 mph - N/A   Clear
4:58 PM 66.0 °F - 28.6 °F 25% 30.15 in 10.0 mi West 4.6 mph - N/A   Clear
5:58 PM 59.2 °F - 31.3 °F 35% 30.16 in 10.0 mi SW 3.5 mph - N/A   Clear
6:58 PM 50.0 °F - 35.8 °F 58% 30.17 in 10.0 mi Calm Calm - N/A   Clear
7:58 PM 45.5 °F - 34.0 °F 64% 30.17 in 10.0 mi Calm Calm - N/A   Clear
8:58 PM 43.7 °F - 35.4 °F 73% 30.17 in 10.0 mi North 1.2 mph - N/A   Clear
9:58 PM 40.8 °F - 35.2 °F 80% 30.17 in 10.0 mi NNE 1.2 mph - N/A   Clear
10:58 PM 38.7 °F - 34.2 °F 84% 30.13 in 10.0 mi Calm Calm - N/A   Clear
11:58 PM 39.6 °F - 35.2 °F 85% 30.11 in 10.0 mi NNE 2.3 mph - N/A   Clear